WX1PBD Weather Reports


time (UTC)temp
F
wind
direction
speed
knots
gust
knots
rain 1hr
in
rain 24hr
in
rain mn
in
humidity
%
barometer
mb
20260505065008 54 235 1.7 4.3 0.00 0.00 0.00 71 1011.2
20260505064008 54 204 0.9 2.6 0.00 0.00 0.00 70 1011.2
20260505063008 54 174 1.7 5.2 0.00 0.00 0.00 69 1011.2
20260505061504 55 278 0.9 2.6 0.00 0.00 0.00 68 1011.3
20260505061008 55 357 0.9 2.6 0.00 0.00 0.00 67 1011.2
20260505060504 55 295 0.9 2.6 0.00 0.00 0.00 67 1011.2
20260505055504 55 247 0.9 4.3 0.00 0.00 0.00 66 1011.3
20260505055008 56 275 1.7 2.6 0.00 0.00 0.00 66 1011.3
20260505054505 56 279 1.7 7.0 0.00 0.00 0.00 66 1011.3
20260505054008 56 261 1.7 7.8 0.00 0.00 0.00 66 1011.3
20260505053505 56 287 2.6 5.2 0.00 0.00 0.00 65 1011.3
20260505053008 56 253 1.7 7.0 0.00 0.00 0.00 65 1011.3
20260505052504 56 154 2.6 7.0 0.00 0.00 0.00 64 1011.2
20260505052008 56 276 1.7 7.0 0.00 0.00 0.00 64 1011.3
20260505051504 56 226 2.6 7.8 0.00 0.00 0.00 64 1011.3
20260505051008 56 294 2.6 6.1 0.00 0.00 0.00 64 1011.2
20260505050504 56 243 1.7 8.7 0.00 0.00 0.00 64 1011.3
20260505041504 57 142 1.7 5.2 0.00 0.00 0.00 61 1011.5
20260505041008 57 158 2.6 8.7 0.00 0.00 0.00 61 1011.4
20260505040505 57 284 1.7 7.8 0.00 0.00 0.00 60 1011.4
20260505040005 57 113 1.7 7.8 0.00 0.00 0.00 60 1011.3
20260505035505 57 153 1.7 8.7 0.00 0.00 0.00 59 1011.2
20260505035009 57 275 3.5 8.7 0.00 0.00 0.00 59 1011.3
20260505034008 58 245 3.5 7.8 0.00 0.00 0.00 58 1011.3
20260505033008 58 304 2.6 8.7 0.00 0.00 0.00 57 1011.3
20260505032504 58 172 1.7 10.4 0.00 0.00 0.00 56 1011.2
20260505032008 58 146 1.7 10.4 0.00 0.00 0.00 56 1011.2
20260505031505 58 100 1.7 10.4 0.00 0.00 0.00 55 1011.3
20260505031008 58 238 2.6 7.8 0.00 0.00 0.00 55 1011.3
20260505030505 58 269 1.7 7.8 0.00 0.00 0.00 55 1011.2
20260505025504 59 230 3.5 11.3 0.00 0.00 0.00 54 1011.2
20260505025009 59 268 1.7 11.3 0.00 0.00 0.00 53 1011.3
20260505024008 59 141 4.3 10.4 0.00 0.00 0.00 52 1011.3
20260505023505 59 227 1.7 7.0 0.00 0.00 0.00 52 1011.4
20260505023008 59 247 4.3 7.8 0.00 0.00 0.00 51 1011.3
20260505022506 60 267 1.7 6.1 0.00 0.00 0.00 51 1011.3
20260505022008 60 263 1.7 10.4 0.00 0.00 0.00 51 1011.4
20260505021504 60 259 1.7 6.1 0.00 0.00 0.00 51 1011.3
20260505021008 60 206 2.6 7.8 0.00 0.00 0.00 50 1011.3
20260505015504 60 231 3.5 8.7 0.00 0.00 0.00 49 1011.2
20260505015008 61 294 3.5 8.7 0.00 0.00 0.00 49 1011.2
20260505014504 61 211 2.6 7.8 0.00 0.00 0.00 49 1011.2
20260505013008 61 263 2.6 7.0 0.00 0.00 0.00 47 1011.0
20260505012504 61 232 4.3 12.2 0.00 0.00 0.00 47 1010.9
20260505012009 61 295 2.6 7.8 0.00 0.00 0.00 47 1010.8
20260505011504 62 184 2.6 7.8 0.00 0.00 0.00 47 1010.7
20260505011008 62 190 1.7 10.4 0.00 0.00 0.00 46 1010.6
20260505010504 62 209 2.6 10.4 0.00 0.00 0.00 46 1010.5
20260505010004 62 311 2.6 13.0 0.00 0.00 0.00 46 1010.5
20260505005504 63 208 2.6 10.4 0.00 0.00 0.00 45 1010.4
20260505005008 63 333 4.3 10.4 0.00 0.00 0.00 45 1010.3
20260505004504 63 95 2.6 7.0 0.00 0.00 0.00 45 1010.2
20260505004008 63 132 2.6 7.0 0.00 0.00 0.00 45 1010.2
20260505003008 64 130 2.6 10.4 0.00 0.00 0.00 44 1009.9
20260505002504 64 292 2.6 13.9 0.00 0.00 0.00 44 1009.7
20260505002009 64 180 4.3 8.7 0.00 0.00 0.00 44 1009.6
20260505001504 64 264 4.3 8.7 0.00 0.00 0.00 43 1009.4
20260505001008 64 199 5.2 10.4 0.00 0.00 0.00 43 1009.3
20260505000004 65 206 2.6 14.8 0.00 0.00 0.00 43 1009.1
20260504235504 65 309 2.6 11.3 0.00 0.00 0.00 43 1008.9
20260504235008 65 173 5.2 10.4 0.00 0.00 0.00 42 1008.8
20260504234504 65 197 5.2 13.9 0.00 0.00 0.00 42 1008.8
20260504234007 66 140 5.2 12.2 0.00 0.00 0.00 41 1008.8
20260504233504 66 153 6.1 14.8 0.00 0.00 0.00 41 1008.7
20260504233008 67 190 2.6 7.0 0.00 0.00 0.00 40 1008.6
20260504232504 67 8 4.3 8.7 0.00 0.00 0.00 39 1008.5
20260504232008 68 187 2.6 10.4 0.00 0.00 0.00 38 1008.4
20260504231504 68 235 3.5 8.7 0.00 0.00 0.00 37 1008.3
20260504231008 68 279 4.3 10.4 0.00 0.00 0.00 37 1008.0
20260504230504 69 250 2.6 10.4 0.00 0.00 0.00 36 1007.9
20260504230004 69 242 4.3 15.6 0.00 0.00 0.00 35 1007.9
20260504225007 71 157 2.6 7.8 0.00 0.00 0.00 31 1007.7
20260504224504 71 232 4.3 11.3 0.00 0.00 0.00 31 1007.6
20260504224008 71 228 2.6 7.0 0.00 0.00 0.00 31 1007.5
20260504223504 71 265 5.2 11.3 0.00 0.00 0.00 30 1007.4
20260504223008 72 279 4.3 7.8 0.00 0.00 0.00 30 1007.5
20260504222504 72 261 3.5 10.4 0.00 0.00 0.00 30 1007.4
20260504222008 72 246 4.3 10.4 0.00 0.00 0.00 30 1007.5
20260504221504 72 263 5.2 12.2 0.00 0.00 0.00 30 1007.4
20260504221008 72 250 4.3 10.4 0.00 0.00 0.00 29 1007.4
20260504220504 72 268 6.1 11.3 0.00 0.00 0.00 29 1007.5
20260504215009 73 174 5.2 11.3 0.00 0.00 0.00 29 1007.4
20260504214504 73 184 3.5 10.4 0.00 0.00 0.00 29 1007.5
20260504213504 73 267 6.1 12.2 0.00 0.00 0.00 28 1007.5
20260504213009 73 269 4.3 10.4 0.00 0.00 0.00 28 1007.5
20260504212504 73 224 7.0 15.6 0.00 0.00 0.00 28 1007.6
20260504211505 74 150 4.3 10.4 0.00 0.00 0.00 27 1007.5
20260504211008 74 260 4.3 7.8 0.00 0.00 0.00 28 1007.5
20260504210004 73 251 5.2 7.8 0.00 0.00 0.00 27 1007.5
20260504205504 73 258 4.3 10.4 0.00 0.00 0.00 28 1007.5
20260504204504 72 243 5.2 13.9 0.00 0.00 0.00 28 1007.6
20260504204008 72 305 3.5 13.0 0.00 0.00 0.00 28 1007.5
20260504203504 72 224 6.1 10.4 0.00 0.00 0.00 27 1007.6
20260504203008 72 254 5.2 11.3 0.00 0.00 0.00 27 1007.6
20260504202007 73 260 7.8 14.8 0.00 0.00 0.00 27 1007.7
20260504201504 72 251 4.3 14.8 0.00 0.00 0.00 27 1007.7
20260504200504 72 241 6.1 13.0 0.00 0.00 0.00 27 1007.7
20260504200004 72 257 4.3 13.0 0.00 0.00 0.00 27 1007.7
20260504195505 73 270 7.8 14.8 0.00 0.00 0.00 27 1007.8
20260504195008 72 246 4.3 14.8 0.00 0.00 0.00 27 1007.7
20260504194010 72 272 7.8 14.8 0.00 0.00 0.00 27 1007.8
20260504193504 71 272 7.8 17.4 0.00 0.00 0.00 27 1007.8
20260504192504 72 266 6.1 10.4 0.00 0.00 0.00 27 1007.9
20260504192008 71 238 6.1 13.9 0.00 0.00 0.00 28 1008.0
20260504191504 71 250 7.0 15.6 0.00 0.00 0.00 27 1008.0
20260504191008 72 262 8.7 15.6 0.00 0.00 0.00 27 1008.2
20260504190505 72 260 6.1 12.2 0.00 0.00 0.00 27 1008.1
20260504185008 71 288 6.1 14.8 0.00 0.00 0.00 28 1008.1
20260504184009 71 256 4.3 10.4 0.00 0.00 0.00 29 1008.1
20260504183505 71 245 7.8 17.4 0.00 0.00 0.00 28 1008.1
20260504182505 71 282 4.3 11.3 0.00 0.00 0.00 29 1008.1
20260504182008 70 321 5.2 14.8 0.00 0.00 0.00 29 1008.2
20260504181009 70 272 7.0 20.9 0.00 0.00 0.00 29 1008.3
20260504180504 70 267 7.0 13.0 0.00 0.00 0.00 28 1008.3
20260504180014 69 278 10.4 22.6 0.00 0.00 0.00 29 1008.4
20260504175524 69 277 6.1 19.1 0.00 0.00 0.00 28 1008.4
20260504175028 69 289 7.8 17.4 0.00 0.00 0.00 28 1008.5
20260504174534 70 270 5.2 15.6 0.00 0.00 0.00 28 1008.4
20260504174008 69 257 5.2 13.0 0.00 0.00 0.00 29 1008.5
20260504173008 69 258 7.8 11.3 0.00 0.00 0.00 29 1008.6
20260504172008 70 271 6.1 17.4 0.00 0.00 0.00 28 1008.4
20260504171504 69 246 5.2 11.3 0.00 0.00 0.00 30 1008.4
20260504171009 69 269 6.1 14.8 0.00 0.00 0.00 30 1008.4
20260504151008 65 261 5.2 13.9 0.00 0.00 0.00 34 1009.8
20260504150505 65 258 6.1 14.8 0.00 0.00 0.00 34 1009.9
20260504141008 62 268 6.1 12.2 0.00 0.00 0.00 39 1010.3
20260504140504 62 286 7.8 17.4 0.00 0.00 0.00 39 1010.4
20260504130505 59 268 6.1 13.0 0.00 0.00 0.00 42 1010.8
20260504110504 48 157 0.9 2.6 0.00 0.00 0.00 56 1011.6
20260504100504 48 269 1.7 6.1 0.00 0.00 0.00 57 1011.6
20260504081506 48 284 1.7 2.6 0.00 0.00 0.00 53 1011.4
20260504081008 48 285 0.9 2.6 0.00 0.00 0.00 54 1011.4
20260504080504 48 281 1.7 2.6 0.00 0.00 0.00 53 1011.4